sat.trackr.live / text

‹ back to catalog

STARLINK-36799

NORAD 67958 · 2026-037AC

PAYLOAD ACTIVE UNKNOWN

§ Identity

Operator
Country
US
Launch date
2026-02-24
Launch site
AFETR
Launch vehicle
Mass (kg)
RCS (m²)

Purposes: comms

External: N2YO · Heavens-Above · Gunter

§ Orbital elements

Epoch: 2026-09-19T04:18:43.626240Z

Period
94.27 min
Inclination
42.9984°
Eccentricity
0.0001360
Mean motion
15.27581507 rev/d
Perigee alt
482.1 km
Apogee alt
484.0 km
Semi-major
6,861.2 km
B*
3.9978e-4
RAAN
177.8777°
Arg perigee
272.6538°
Mean anomaly
87.4158°
Rev number
3,293

§ Raw data

STARLINK-367991 67958U 26037AC  26262.17967160  .00010756  00000+0  39978-3 0  99952 67958  42.9984 177.8777 0001360 272.6538  87.4158 15.27581507 32931

JSON: /api/v1/satellites/67958 · /tle

For live sub-satellite position, see the globe view (requires WebGL).

§ Visibility from observer

Set your observer location to see the next 7 days of passes ≥ 10°. The values pass through the URL so the page stays shareable.

No JS? Fill the form by hand. The geolocation button needs JavaScript.